User: anonymous   Login
Location: Dana
(41.8364°N, 106.7042°W)
Time: 01:21:45
(UTC+00:00)
Language:

A-11 Canister half - Orbit

View from above orbital plane
View from above orbital plane
View from above satellite
View from above satellite

Ground track
Ground track

The orbit is defined by the following mean orbital elements,

1 00053U          26133.18366502 +.00000000 +00000-0 +13039-2 0 00005
2 00053  47.2768  90.3072 0101135 331.9630  27.5736 12.17412016    06
Epoch (UTC): 13 May 2026 04:24:28
Eccentricity: 0.0101135
inclination: 47.2768°
perigee height: 1523 km
apogee height: 1685 km
right ascension of ascending node: 90.3072°
argument of perigee: 331.9630°
revolutions per day: 12.17412016
mean anomaly at epoch: 27.5736°

The dashed part of the orbit path shows where the satellite is in the earth's shadow,  

DLR